Lac La Biche, Alberta

Conditions des dernières 24 heures

Date / Heure
(HAR)
Conditions Temp
(°C)
Humidité
(%)
Point de rosée
(°C)
Vent
(km/h)
Pression
(kPa)
Visibilité
(km)
25 octobre 2014
2:00 N.D. 1   82 -2 O 12 101,6 N.D.
1:00 N.D. 2 76 -2 O 14 101,5 N.D.
0:00 N.D. 4 69 -2 ONO 15 101,5 N.D.
24 octobre 2014
23:00 N.D. 4 65 -2 O 15 101,4 N.D.
22:00 N.D. 4 63 -2 O 13 101,4 N.D.
21:00 N.D. 5 59 -3 OSO 14 101,4 N.D.
20:00 N.D. 5 59 -3 O 12 101,3 N.D.
19:00 N.D. 6 50 -3 ONO 18 101,3 N.D.
18:00 N.D. 7 43 -4 ONO 20 101,2 N.D.
17:00 N.D. 8 41 -5 ONO 27 rafale 38 101,2 N.D.
16:00 N.D. 9   42 -4 ONO 23 rafale 43 101,1 N.D.
15:00 N.D. 8 46 -3 ONO 31 rafale 47 101,0 N.D.
14:00 N.D. 9   50 -1 ONO 26 rafale 38 101,0 N.D.
13:00 N.D. 8 59 0 ONO 22 rafale 34 100,9 N.D.
12:00 N.D. 6 69 1 ONO 23 rafale 39 100,9 N.D.
11:00 N.D. 5 75 1 O 20 rafale 30 100,8 N.D.
10:00 N.D. 4 79 1 O 17 rafale 29 100,8 N.D.
9:00 N.D. 3 80 0 ONO 18 100,7 N.D.
8:00 N.D. 4 76 0 ONO 20 100,6 N.D.
7:00 N.D. 4 77 0 ONO 24 rafale 34 100,6 N.D.
6:00 N.D. 4 78 0 ONO 14 100,5 N.D.
5:00 N.D. 3 77 -1 ONO 18 100,4 N.D.
4:00 N.D. 4 74 -1 ONO 27 rafale 37 100,3 N.D.
3:00 N.D. 5 73 0 ONO 33 100,2 N.D.
2:00 N.D. 5 74 0 O 22 rafale 40 100,2 N.D.
N.D. non disponible
↑ température la plus haute
↓ température la plus basse

Si vous désirez plus de données historiques sur les conditions météo, s.v.p. visitez Données climatologiques en ligne.

Date de modification :